START_TIME,STEP,MOV.,AL01,t_acc.,AL02,t_acc.,E37,t_acc.,H21,t_acc.
1979-07-03 06:00:35.140 ,1,1,0.,24.0,0.,24.0,1.,24.0,0.,24.0
1979-07-03 06:00:59.140 ,2,1,0.,24.0,0.,24.0,0.,24.0,0.,24.0
1979-07-03 06:01:23.140 ,6,1,0.,24.0,0.,24.0,0.,24.0,0.,24.0
1979-07-03 06:01:47.140 ,5,1,15.,24.0,0.,24.0,0.,24.0,0.,24.0
1979-07-03 06:02:11.140 ,1,1,0.,24.0,0.,24.0,0.,24.0,0.,24.0
1979-07-03 06:02:35.140 ,2,1,0.,24.0,0.,24.0,0.,24.0,0.,24.0
1979-07-03 06:02:59.140 ,6,1,0.,24.0,0.,24.0,0.,24.0,0.,24.0
1979-07-03 06:03:23.140 ,5,1,26.,24.0,0.,24.0,0.,24.0,0.,24.0
1979-07-03 06:03:47.140 ,1,1,0.,24.0,0.,24.0,0.,24.0,0.,24.0
1979-07-03 06:04:11.140 ,2,1,0.,24.0,0.,24.0,0.,24.0,0.,24.0
1979-07-03 06:04:35.140 ,6,1,0.,24.0,0.,24.0,0.,24.0,0.,24.0
1979-07-03 06:04:59.140 ,5,1,14.,24.0,0.,24.0,0.,24.0,0.,24.0
1979-07-03 06:05:23.140 ,1,1,0.,24.0,0.,24.0,0.,24.0,0.,24.0
1979-07-03 06:05:47.140 ,0,0,0.,24.0,0.,24.0,0.,24.0,0.,24.0
1979-07-03 06:06:11.140 ,0,0,0.,24.0,0.,24.0,0.,24.0,0.,24.0
1979-07-03 06:06:35.140 ,5,1,17.,24.0,0.,24.0,0.,24.0,0.,24.0
1979-07-03 06:06:59.140 ,5,0,0.,24.0,1.,24.0,1.,24.0,0.,24.0
1979-07-03 06:07:23.140 ,4,1,0.,24.0,0.,24.0,0.,24.0,0.,24.0
1979-07-03 06:07:47.140 ,4,0,1.,24.0,1.,24.0,0.,24.0,0.,24.0
1979-07-03 06:08:11.140 ,3,1,2.,24.0,0.,24.0,0.,24.0,0.,24.0
1979-07-03 06:08:35.140 ,3,0,0.,24.0,0.,24.0,0.,24.0,0.,24.0
1979-07-03 06:08:59.140 ,2,1,0.,24.0,0.,24.0,0.,24.0,0.,24.0
1979-07-03 06:09:23.140 ,2,0,0.,24.0,0.,24.0,1.,24.0,0.,24.0
1979-07-03 06:09:47.140 ,1,1,0.,24.0,0.,24.0,0.,24.0,0.,24.0
1979-07-03 06:10:11.140 ,1,0,0.,24.0,0.,24.0,0.,24.0,0.,24.0
1979-07-03 06:10:35.140 ,0,1,1.,24.0,0.,24.0,0.,24.0,0.,24.0
1979-07-03 06:10:59.140 ,0,0,0.,24.0,0.,24.0,1.,24.0,0.,24.0
1979-07-03 06:11:23.140 ,0,1,0.,24.0,0.,24.0,0.,24.0,0.,24.0
1979-07-03 06:11:47.140 ,0,0,0.,24.0,0.,24.0,0.,24.0,0.,24.0
1979-07-03 06:12:11.140 ,1,1,0.,24.0,0.,24.0,0.,24.0,0.,24.0
1979-07-03 06:12:35.140 ,1,0,0.,24.0,0.,24.0,0.,24.0,0.,24.0
1979-07-03 06:12:59.140 ,2,1,0.,24.0,0.,24.0,0.,24.0,0.,24.0
1979-07-03 06:13:23.140 ,2,0,0.,24.0,0.,24.0,1.,24.0,0.,24.0
1979-07-03 06:13:47.140 ,3,1,0.,24.0,1.,24.0,0.,24.0,0.,24.0
1979-07-03 06:14:11.140 ,3,0,0.,24.0,1.,24.0,0.,24.0,0.,24.0
1979-07-03 06:14:35.140 ,4,1,0.,24.0,0.,24.0,0.,24.0,0.,24.0
1979-07-03 06:14:59.140 ,4,0,1.,24.0,0.,24.0,0.,24.0,0.,24.0
1979-07-03 06:15:23.140 ,5,1,0.,24.0,0.,24.0,0.,24.0,0.,24.0
1979-07-03 06:15:47.140 ,5,0,0.,24.0,0.,24.0,0.,24.0,0.,24.0
1979-07-03 06:16:11.140 ,6,1,2.,24.0,0.,24.0,0.,24.0,0.,24.0
1979-07-03 06:16:35.140 ,6,0,0.,24.0,1.,24.0,0.,24.0,0.,24.0
1979-07-03 06:16:59.140 ,7,1,6.,24.0,0.,24.0,0.,24.0,0.,24.0
1979-07-03 06:17:23.140 ,7,0,36.,24.0,0.,24.0,0.,24.0,0.,24.0
1979-07-03 06:17:47.140 ,7,1,29.,24.0,0.,24.0,0.,24.0,0.,24.0
1979-07-03 06:18:11.140 ,7,0,34.,24.0,0.,24.0,0.,24.0,0.,24.0
1979-07-03 06:18:35.140 ,6,1,21.,24.0,0.,24.0,1.,24.0,0.,24.0
1979-07-03 06:18:59.140 ,6,0,0.,24.0,0.,24.0,0.,24.0,0.,24.0
1979-07-03 06:19:23.140 ,5,1,0.,24.0,0.,24.0,0.,24.0,0.,24.0
1979-07-03 06:19:47.140 ,5,0,0.,24.0,0.,24.0,0.,24.0,0.,24.0
1979-07-03 06:20:11.140 ,4,1,0.,24.0,0.,24.0,2.,24.0,0.,24.0
1979-07-03 06:20:35.140 ,4,0,1.,24.0,0.,24.0,0.,24.0,0.,24.0
1979-07-03 06:20:59.140 ,3,1,1.,24.0,0.,24.0,0.,24.0,0.,24.0
1979-07-03 06:21:23.140 ,3,0,0.,24.0,0.,24.0,0.,24.0,0.,24.0
1979-07-03 06:21:47.140 ,2,1,0.,24.0,0.,24.0,0.,24.0,0.,24.0
1979-07-03 06:22:11.140 ,2,0,0.,24.0,0.,24.0,0.,24.0,0.,24.0
1979-07-03 06:22:35.140 ,1,1,1.,24.0,0.,24.0,0.,24.0,0.,24.0
1979-07-03 06:22:59.140 ,1,0,0.,24.0,0.,24.0,0.,24.0,0.,24.0
1979-07-03 06:23:23.140 ,0,1,0.,24.0,1.,24.0,1.,24.0,0.,24.0
1979-07-03 06:23:47.140 ,0,0,0.,24.0,0.,24.0,1.,24.0,0.,24.0
1979-07-03 06:24:11.140 ,0,1,0.,24.0,0.,24.0,0.,24.0,0.,24.0
1979-07-03 06:24:35.140 ,0,0,1.,24.0,0.,24.0,0.,24.0,0.,24.0
1979-07-03 06:24:59.140 ,1,1,0.,24.0,0.,24.0,0.,24.0,0.,24.0
1979-07-03 06:25:23.140 ,1,0,1.,24.0,0.,24.0,0.,24.0,0.,24.0
1979-07-03 06:25:47.140 ,2,1,0.,24.0,0.,24.0,0.,24.0,0.,24.0
1979-07-03 06:26:11.140 ,2,0,0.,24.0,0.,24.0,0.,24.0,0.,24.0
1979-07-03 06:26:35.140 ,3,1,0.,24.0,0.,24.0,2.,24.0,0.,24.0
1979-07-03 06:26:59.140 ,3,0,0.,24.0,0.,24.0,0.,24.0,0.,24.0
1979-07-03 06:27:23.140 ,4,1,0.,24.0,0.,24.0,0.,24.0,0.,24.0
1979-07-03 06:27:47.140 ,4,0,1.,24.0,0.,24.0,0.,24.0,0.,24.0
1979-07-03 06:28:11.140 ,5,1,0.,24.0,0.,24.0,0.,24.0,0.,24.0
1979-07-03 06:28:35.140 ,5,0,0.,24.0,0.,24.0,0.,24.0,0.,24.0
1979-07-03 06:28:59.140 ,6,1,0.,24.0,0.,24.0,0.,24.0,0.,24.0
1979-07-03 06:29:23.140 ,6,0,0.,24.0,0.,24.0,0.,24.0,0.,24.0
1979-07-03 06:29:47.140 ,7,1,8.,24.0,0.,24.0,0.,24.0,0.,24.0
1979-07-03 06:30:11.140 ,7,0,29.,24.0,0.,24.0,0.,24.0,0.,24.0
1979-07-03 06:30:35.140 ,7,1,27.,24.0,0.,24.0,1.,24.0,0.,24.0
1979-07-03 06:30:59.140 ,7,0,33.,24.0,0.,24.0,0.,24.0,0.,24.0
1979-07-03 06:31:23.140 ,6,1,29.,24.0,0.,24.0,0.,24.0,0.,24.0
1979-07-03 06:31:47.140 ,6,0,0.,24.0,0.,24.0,0.,24.0,0.,24.0
1979-07-03 06:32:11.140 ,5,1,0.,24.0,0.,24.0,0.,24.0,0.,24.0
1979-07-03 06:32:35.140 ,5,0,0.,24.0,0.,24.0,0.,24.0,0.,24.0
1979-07-03 06:32:59.140 ,4,1,0.,24.0,0.,24.0,0.,24.0,0.,24.0
1979-07-03 06:33:23.140 ,4,0,0.,24.0,0.,24.0,1.,24.0,0.,24.0
1979-07-03 06:33:47.140 ,3,1,0.,24.0,0.,24.0,0.,24.0,0.,24.0
1979-07-03 06:34:11.140 ,3,0,0.,24.0,0.,24.0,0.,24.0,0.,24.0
1979-07-03 06:34:35.140 ,2,1,0.,24.0,0.,24.0,0.,24.0,0.,24.0
1979-07-03 06:34:59.140 ,2,0,0.,24.0,0.,24.0,1.,24.0,0.,24.0
1979-07-03 06:35:23.140 ,1,1,0.,24.0,1.,24.0,0.,24.0,0.,24.0
1979-07-03 06:35:47.140 ,1,0,0.,24.0,0.,24.0,0.,24.0,0.,24.0
1979-07-03 06:36:11.140 ,0,1,1.,24.0,0.,24.0,1.,24.0,0.,24.0
1979-07-03 06:36:35.140 ,0,0,0.,24.0,0.,24.0,0.,24.0,0.,24.0
1979-07-03 06:36:59.140 ,0,1,0.,24.0,0.,24.0,0.,24.0,0.,24.0
1979-07-03 06:37:23.140 ,0,0,1.,24.0,0.,24.0,0.,24.0,0.,24.0
1979-07-03 06:37:47.140 ,1,1,0.,24.0,0.,24.0,0.,24.0,0.,24.0
1979-07-03 06:38:11.140 ,1,0,0.,24.0,0.,24.0,1.,24.0,0.,24.0
1979-07-03 06:38:35.140 ,2,1,0.,24.0,0.,24.0,0.,24.0,0.,24.0
1979-07-03 06:38:59.140 ,2,0,0.,24.0,0.,24.0,0.,24.0,0.,24.0
1979-07-03 06:39:23.140 ,3,1,0.,24.0,0.,24.0,1.,24.0,0.,24.0
1979-07-03 06:39:47.140 ,3,0,1.,24.0,0.,24.0,0.,24.0,0.,24.0
1979-07-03 06:40:11.140 ,4,1,0.,24.0,0.,24.0,2.,24.0,0.,24.0
1979-07-03 06:40:35.140 ,4,0,1.,24.0,0.,24.0,0.,24.0,0.,24.0
1979-07-03 06:40:59.140 ,5,1,1.,24.0,0.,24.0,0.,24.0,0.,24.0
1979-07-03 06:41:23.140 ,5,0,1.,24.0,1.,24.0,0.,24.0,0.,24.0
1979-07-03 06:41:47.140 ,6,1,0.,24.0,1.,24.0,0.,24.0,0.,24.0
1979-07-03 06:42:11.140 ,6,0,1.,24.0,0.,24.0,0.,24.0,0.,24.0
1979-07-03 06:42:11.140 ,6,0,1.,24.0,0.,24.0,0.,24.0,0.,24.0
1979-07-03 06:42:35.140 ,7,0,5.,24.0,0.,24.0,0.,24.0,0.,24.0
1979-07-03 06:42:59.140 ,7,0,22.,24.0,0.,24.0,0.,24.0,0.,24.0
1979-07-03 06:43:23.140 ,5,1,18.,24.0,0.,24.0,0.,24.0,0.,24.0
1979-07-03 06:43:47.140 ,1,1,0.,24.0,0.,24.0,1.,24.0,0.,24.0
1979-07-03 06:44:11.140 ,2,1,1.,24.0,0.,24.0,0.,24.0,0.,24.0
1979-07-03 06:44:35.140 ,6,1,0.,24.0,0.,24.0,0.,24.0,0.,24.0
1979-07-03 06:44:59.140 ,5,1,20.,24.0,0.,24.0,0.,24.0,0.,24.0
1979-07-03 06:45:23.140 ,1,1,0.,24.0,0.,24.0,0.,24.0,0.,24.0
1979-07-03 06:45:47.140 ,2,1,0.,24.0,0.,24.0,0.,24.0,0.,24.0
1979-07-03 06:46:11.140 ,6,1,0.,24.0,0.,24.0,0.,24.0,0.,24.0
1979-07-03 06:46:35.140 ,5,1,19.,24.0,0.,24.0,0.,24.0,0.,24.0
1979-07-03 06:46:59.140 ,1,1,0.,24.0,0.,24.0,1.,24.0,0.,24.0
1979-07-03 06:47:23.140 ,2,1,0.,24.0,0.,24.0,0.,24.0,0.,24.0
1979-07-03 06:47:47.140 ,6,1,0.,24.0,0.,24.0,0.,24.0,0.,24.0
1979-07-03 06:48:11.140 ,5,1,16.,24.0,0.,24.0,0.,24.0,0.,24.0
1979-07-03 06:48:35.140 ,1,1,1.,24.0,0.,24.0,0.,24.0,0.,24.0
1979-07-03 06:48:59.140 ,2,1,0.,24.0,1.,24.0,0.,24.0,0.,24.0
1979-07-03 06:49:23.140 ,6,1,0.,24.0,0.,24.0,0.,24.0,0.,24.0
1979-07-03 06:49:47.140 ,5,1,14.,24.0,0.,24.0,0.,24.0,0.,24.0
1979-07-03 06:50:11.140 ,1,1,0.,24.0,0.,24.0,0.,24.0,0.,24.0
1979-07-03 06:50:35.130 ,2,1,0.,24.0,0.,24.0,1.,24.0,0.,24.0
1979-07-03 06:50:59.130 ,6,1,0.,24.0,0.,24.0,0.,24.0,0.,24.0
1979-07-03 06:51:23.130 ,5,1,23.,24.0,0.,24.0,1.,24.0,0.,24.0
1979-07-03 06:51:47.130 ,1,1,1.,24.0,0.,24.0,0.,24.0,0.,24.0
1979-07-03 06:52:11.130 ,2,1,0.,24.0,0.,24.0,0.,24.0,0.,24.0
1979-07-03 06:52:35.130 ,6,1,0.,24.0,0.,24.0,0.,24.0,0.,24.0
1979-07-03 06:52:59.130 ,5,1,19.,24.0,0.,24.0,0.,24.0,0.,24.0
1979-07-03 06:53:23.130 ,1,1,0.,24.0,0.,24.0,0.,24.0,0.,24.0
1979-07-03 06:53:47.130 ,0,0,0.,24.0,0.,24.0,1.,24.0,0.,24.0
1979-07-03 06:54:11.130 ,0,0,1.,24.0,0.,24.0,0.,24.0,0.,24.0
1979-07-03 06:54:35.130 ,5,1,13.,24.0,0.,24.0,0.,24.0,0.,24.0
1979-07-03 06:54:59.130 ,5,0,0.,24.0,0.,24.0,0.,24.0,0.,24.0
1979-07-03 06:55:23.130 ,4,1,1.,24.0,0.,24.0,0.,24.0,0.,24.0
1979-07-03 06:55:47.130 ,4,0,0.,24.0,0.,24.0,0.,24.0,0.,24.0
1979-07-03 06:56:11.130 ,3,1,0.,24.0,0.,24.0,0.,24.0,0.,24.0
1979-07-03 06:56:35.130 ,3,0,0.,24.0,0.,24.0,0.,24.0,0.,24.0
1979-07-03 06:56:59.130 ,2,1,1.,24.0,0.,24.0,0.,24.0,0.,24.0
1979-07-03 06:57:23.130 ,2,0,0.,24.0,1.,24.0,0.,24.0,0.,24.0
1979-07-03 06:57:47.130 ,1,1,0.,24.0,0.,24.0,0.,24.0,0.,24.0
1979-07-03 06:58:11.130 ,1,0,0.,24.0,0.,24.0,0.,24.0,0.,24.0
1979-07-03 06:58:35.130 ,0,1,0.,24.0,0.,24.0,1.,24.0,0.,24.0
1979-07-03 06:58:59.130 ,0,0,0.,24.0,0.,24.0,0.,24.0,0.,24.0
1979-07-03 06:59:23.130 ,0,1,0.,24.0,0.,24.0,0.,24.0,0.,24.0
1979-07-03 06:59:47.130 ,0,0,0.,24.0,1.,24.0,1.,24.0,0.,24.0
1979-07-03 07:00:11.130 ,1,1,0.,24.0,0.,24.0,0.,24.0,0.,24.0
1979-07-03 07:00:35.130 ,1,0,0.,24.0,0.,24.0,0.,24.0,0.,24.0
1979-07-03 07:00:59.130 ,2,1,0.,24.0,1.,24.0,0.,24.0,0.,24.0
1979-07-03 07:01:23.130 ,2,0,0.,24.0,0.,24.0,0.,24.0,0.,24.0
1979-07-03 07:01:47.130 ,3,1,2.,24.0,0.,24.0,0.,24.0,0.,24.0
1979-07-03 07:02:11.130 ,3,0,0.,24.0,0.,24.0,0.,24.0,0.,24.0
1979-07-03 07:02:35.130 ,4,1,0.,24.0,0.,24.0,0.,24.0,0.,24.0
1979-07-03 07:02:59.130 ,4,0,0.,24.0,0.,24.0,1.,24.0,0.,24.0
1979-07-03 07:03:23.130 ,5,1,1.,24.0,0.,24.0,0.,24.0,0.,24.0
1979-07-03 07:03:47.130 ,5,0,0.,24.0,1.,24.0,0.,24.0,0.,24.0
1979-07-03 07:04:11.130 ,6,1,0.,24.0,0.,24.0,0.,24.0,0.,24.0
1979-07-03 07:04:35.130 ,6,0,0.,24.0,0.,24.0,1.,24.0,0.,24.0
1979-07-03 07:04:59.130 ,7,1,7.,24.0,0.,24.0,1.,24.0,0.,24.0
1979-07-03 07:05:23.130 ,7,0,30.,24.0,0.,24.0,1.,24.0,0.,24.0
1979-07-03 07:05:47.130 ,7,1,37.,24.0,0.,24.0,0.,24.0,0.,24.0
1979-07-03 07:06:11.130 ,7,0,27.,24.0,0.,24.0,0.,24.0,0.,24.0
1979-07-03 07:06:35.130 ,6,1,19.,24.0,0.,24.0,0.,24.0,0.,24.0
1979-07-03 07:06:59.130 ,6,0,1.,24.0,0.,24.0,0.,24.0,0.,24.0
1979-07-03 07:07:23.130 ,5,1,0.,24.0,0.,24.0,1.,24.0,0.,24.0
1979-07-03 07:07:47.130 ,5,0,1.,24.0,0.,24.0,0.,24.0,0.,24.0
1979-07-03 07:08:11.130 ,4,1,3.,24.0,0.,24.0,1.,24.0,0.,24.0
1979-07-03 07:08:35.130 ,4,0,0.,24.0,0.,24.0,0.,24.0,0.,24.0
1979-07-03 07:08:59.130 ,3,1,0.,24.0,0.,24.0,0.,24.0,0.,24.0
1979-07-03 07:09:23.130 ,3,0,0.,24.0,0.,24.0,2.,24.0,0.,24.0
1979-07-03 07:09:47.130 ,2,1,0.,24.0,0.,24.0,0.,24.0,0.,24.0
1979-07-03 07:10:11.130 ,2,0,0.,24.0,0.,24.0,0.,24.0,0.,24.0
1979-07-03 07:10:35.130 ,1,1,0.,24.0,0.,24.0,0.,24.0,0.,24.0
1979-07-03 07:10:59.130 ,1,0,0.,24.0,0.,24.0,1.,24.0,0.,24.0
1979-07-03 07:11:23.130 ,0,1,0.,24.0,0.,24.0,1.,24.0,0.,24.0
1979-07-03 07:11:47.130 ,0,0,0.,24.0,0.,24.0,0.,24.0,0.,24.0
1979-07-03 07:12:11.130 ,0,1,0.,24.0,0.,24.0,0.,24.0,0.,24.0
1979-07-03 07:12:35.130 ,0,0,0.,24.0,0.,24.0,0.,24.0,0.,24.0
1979-07-03 07:12:59.130 ,1,1,0.,24.0,0.,24.0,0.,24.0,0.,24.0
1979-07-03 07:13:23.130 ,1,0,0.,24.0,2.,24.0,0.,24.0,0.,24.0
1979-07-03 07:13:47.130 ,2,1,0.,24.0,1.,24.0,0.,24.0,0.,24.0
1979-07-03 07:14:11.130 ,2,0,0.,24.0,0.,24.0,2.,24.0,0.,24.0
1979-07-03 07:14:35.130 ,3,1,0.,24.0,0.,24.0,0.,24.0,0.,24.0
1979-07-03 07:14:59.130 ,3,0,0.,24.0,0.,24.0,0.,24.0,0.,24.0
1979-07-03 07:15:23.130 ,4,1,0.,24.0,0.,24.0,0.,24.0,0.,24.0
1979-07-03 07:15:47.130 ,4,0,0.,24.0,0.,24.0,0.,24.0,0.,24.0
1979-07-03 07:16:11.130 ,5,1,0.,24.0,0.,24.0,0.,24.0,0.,24.0
1979-07-03 07:16:35.130 ,5,0,0.,24.0,0.,24.0,0.,24.0,0.,24.0
1979-07-03 07:16:59.130 ,6,1,0.,24.0,0.,24.0,0.,24.0,0.,24.0
1979-07-03 07:17:23.130 ,6,0,1.,24.0,1.,24.0,0.,24.0,0.,24.0
1979-07-03 07:17:47.130 ,7,1,3.,24.0,0.,24.0,0.,24.0,0.,24.0
1979-07-03 07:18:11.130 ,7,0,32.,24.0,0.,24.0,0.,24.0,0.,24.0
1979-07-03 07:18:35.130 ,7,1,35.,24.0,0.,24.0,0.,24.0,0.,24.0
1979-07-03 07:18:59.130 ,7,0,23.,24.0,0.,24.0,0.,24.0,0.,24.0
1979-07-03 07:19:23.130 ,6,1,27.,24.0,0.,24.0,0.,24.0,0.,24.0
1979-07-03 07:19:47.130 ,6,0,0.,24.0,0.,24.0,0.,24.0,0.,24.0
1979-07-03 07:20:11.130 ,5,1,0.,24.0,0.,24.0,0.,24.0,0.,24.0
1979-07-03 07:20:35.130 ,5,0,0.,24.0,0.,24.0,0.,24.0,0.,24.0
1979-07-03 07:20:59.130 ,4,1,0.,24.0,0.,24.0,1.,24.0,0.,24.0
1979-07-03 07:21:23.130 ,4,0,0.,24.0,1.,24.0,0.,24.0,0.,24.0
1979-07-03 07:21:47.130 ,3,1,0.,24.0,0.,24.0,0.,24.0,0.,24.0
1979-07-03 07:22:11.130 ,3,0,0.,24.0,0.,24.0,0.,24.0,0.,24.0
1979-07-03 07:22:35.130 ,2,1,1.,24.0,0.,24.0,0.,24.0,0.,24.0
1979-07-03 07:22:59.130 ,2,0,1.,24.0,0.,24.0,0.,24.0,0.,24.0
1979-07-03 07:23:23.130 ,1,1,0.,24.0,0.,24.0,0.,24.0,0.,24.0
1979-07-03 07:23:47.130 ,1,0,0.,24.0,0.,24.0,0.,24.0,0.,24.0
1979-07-03 07:24:11.130 ,0,1,0.,24.0,0.,24.0,0.,24.0,0.,24.0
1979-07-03 07:24:35.130 ,0,0,1.,24.0,0.,24.0,0.,24.0,0.,24.0
1979-07-03 07:24:59.130 ,0,1,0.,24.0,0.,24.0,0.,24.0,0.,24.0
1979-07-03 07:25:23.130 ,0,0,0.,24.0,0.,24.0,0.,24.0,0.,24.0
1979-07-03 07:25:47.130 ,1,1,0.,24.0,0.,24.0,0.,24.0,0.,24.0
1979-07-03 07:26:11.130 ,1,0,0.,24.0,0.,24.0,0.,24.0,0.,24.0
1979-07-03 07:26:35.130 ,2,1,1.,24.0,0.,24.0,0.,24.0,0.,24.0
1979-07-03 07:26:59.130 ,2,0,0.,24.0,0.,24.0,0.,24.0,0.,24.0
1979-07-03 07:27:23.130 ,3,1,0.,24.0,0.,24.0,0.,24.0,0.,24.0
1979-07-03 07:27:47.130 ,3,0,0.,24.0,0.,24.0,0.,24.0,0.,24.0
1979-07-03 07:28:11.130 ,4,1,1.,24.0,0.,24.0,0.,24.0,0.,24.0
1979-07-03 07:28:35.130 ,4,0,0.,24.0,0.,24.0,0.,24.0,0.,24.0
1979-07-03 07:28:59.130 ,5,1,1.,24.0,0.,24.0,0.,24.0,0.,24.0
1979-07-03 07:29:23.130 ,5,0,1.,24.0,0.,24.0,0.,24.0,0.,24.0
1979-07-03 07:29:47.130 ,6,1,1.,24.0,2.,24.0,0.,24.0,0.,24.0
1979-07-03 07:30:11.130 ,6,0,0.,24.0,0.,24.0,1.,24.0,0.,24.0
1979-07-03 07:30:35.130 ,7,0,10.,24.0,0.,24.0,0.,24.0,0.,24.0
1979-07-03 07:30:59.130 ,0,0,,0,,0,,0,,0
1979-07-03 07:31:10.530 ,7,0,,0,,0,,0,,0
1979-07-03 07:31:23.130 ,5,1,17.,24.0,0.,24.0,0.,24.0,0.,24.0
1979-07-03 07:31:47.130 ,1,1,1.,24.0,0.,24.0,0.,24.0,0.,24.0
1979-07-03 07:32:11.130 ,2,1,0.,24.0,0.,24.0,0.,24.0,0.,24.0
1979-07-03 07:32:35.130 ,6,1,0.,24.0,0.,24.0,0.,24.0,0.,24.0
1979-07-03 07:32:59.130 ,5,1,17.,24.0,0.,24.0,0.,24.0,0.,24.0
1979-07-03 07:33:23.130 ,1,1,0.,24.0,0.,24.0,0.,24.0,0.,24.0
1979-07-03 07:33:47.130 ,2,1,0.,24.0,0.,24.0,0.,24.0,0.,24.0
1979-07-03 07:34:11.130 ,6,1,0.,24.0,0.,24.0,0.,24.0,0.,24.0
1979-07-03 07:34:35.130 ,5,1,13.,24.0,0.,24.0,0.,24.0,0.,24.0
1979-07-03 07:34:59.130 ,1,1,0.,24.0,0.,24.0,1.,24.0,0.,24.0
1979-07-03 07:35:23.130 ,2,1,0.,24.0,0.,24.0,0.,24.0,0.,24.0
1979-07-03 07:35:47.130 ,6,1,0.,24.0,0.,24.0,0.,24.0,0.,24.0
1979-07-03 07:36:11.130 ,5,1,21.,24.0,0.,24.0,0.,24.0,0.,24.0
1979-07-03 07:36:35.130 ,1,1,0.,24.0,0.,24.0,0.,24.0,0.,24.0
1979-07-03 07:36:59.130 ,2,1,0.,24.0,0.,24.0,0.,24.0,0.,24.0
1979-07-03 07:37:23.130 ,6,1,0.,24.0,0.,24.0,0.,24.0,0.,24.0
1979-07-03 07:37:47.130 ,5,1,22.,24.0,0.,24.0,0.,24.0,0.,24.0
1979-07-03 07:38:11.130 ,1,1,0.,24.0,0.,24.0,0.,24.0,0.,24.0
1979-07-03 07:38:35.130 ,2,1,0.,24.0,0.,24.0,0.,24.0,0.,24.0
1979-07-03 07:38:59.130 ,6,1,0.,24.0,0.,24.0,0.,24.0,0.,24.0
1979-07-03 07:39:23.130 ,5,1,21.,24.0,0.,24.0,0.,24.0,0.,24.0
1979-07-03 07:39:47.130 ,1,1,0.,24.0,0.,24.0,0.,24.0,0.,24.0
1979-07-03 07:40:11.130 ,2,1,1.,24.0,0.,24.0,0.,24.0,0.,24.0
1979-07-03 07:40:35.130 ,6,1,1.,24.0,0.,24.0,0.,24.0,0.,24.0
1979-07-03 07:40:59.130 ,5,1,10.,24.0,0.,24.0,0.,24.0,0.,24.0
1979-07-03 07:41:23.130 ,1,1,0.,24.0,0.,24.0,0.,24.0,0.,24.0
1979-07-03 07:41:47.130 ,0,0,0.,24.0,0.,24.0,0.,24.0,0.,24.0
1979-07-03 07:42:11.130 ,0,0,0.,24.0,0.,24.0,0.,24.0,0.,24.0
1979-07-03 07:42:35.130 ,5,1,14.,24.0,0.,24.0,1.,24.0,0.,24.0
1979-07-03 07:42:59.130 ,5,0,0.,24.0,1.,24.0,0.,24.0,0.,24.0
1979-07-03 07:43:23.130 ,4,1,0.,24.0,0.,24.0,1.,24.0,0.,24.0
1979-07-03 07:43:47.130 ,4,0,0.,24.0,0.,24.0,0.,24.0,0.,24.0
1979-07-03 07:44:11.130 ,3,1,0.,24.0,0.,24.0,0.,24.0,0.,24.0
1979-07-03 07:44:35.130 ,3,0,1.,24.0,0.,24.0,0.,24.0,0.,24.0
1979-07-03 07:44:59.130 ,2,1,0.,24.0,0.,24.0,0.,24.0,0.,24.0
1979-07-03 07:45:23.130 ,2,0,0.,24.0,0.,24.0,0.,24.0,0.,24.0
1979-07-03 07:45:47.130 ,1,1,0.,24.0,0.,24.0,0.,24.0,0.,24.0
1979-07-03 07:46:11.130 ,1,0,0.,24.0,0.,24.0,0.,24.0,0.,24.0
1979-07-03 07:46:35.130 ,0,1,0.,24.0,1.,24.0,0.,24.0,0.,24.0
1979-07-03 07:46:59.130 ,0,0,0.,24.0,0.,24.0,0.,24.0,0.,24.0
1979-07-03 07:47:23.130 ,0,1,0.,24.0,0.,24.0,0.,24.0,0.,24.0
1979-07-03 07:47:47.130 ,0,0,0.,24.0,0.,24.0,0.,24.0,0.,24.0
1979-07-03 07:48:11.130 ,1,1,0.,24.0,0.,24.0,0.,24.0,0.,24.0
1979-07-03 07:48:35.130 ,1,0,0.,24.0,0.,24.0,1.,24.0,0.,24.0
1979-07-03 07:48:59.130 ,2,1,0.,24.0,0.,24.0,0.,24.0,0.,24.0
1979-07-03 07:49:23.130 ,2,0,0.,24.0,0.,24.0,0.,24.0,0.,24.0
1979-07-03 07:49:47.130 ,3,1,0.,24.0,0.,24.0,0.,24.0,0.,24.0
1979-07-03 07:50:11.130 ,3,0,1.,24.0,0.,24.0,0.,24.0,0.,24.0
1979-07-03 07:50:35.130 ,4,1,0.,24.0,0.,24.0,0.,24.0,0.,24.0
1979-07-03 07:50:59.130 ,4,0,0.,24.0,0.,24.0,0.,24.0,0.,24.0
1979-07-03 07:51:23.130 ,5,1,0.,24.0,0.,24.0,0.,24.0,0.,24.0
1979-07-03 07:51:47.130 ,5,0,1.,24.0,0.,24.0,0.,24.0,0.,24.0
1979-07-03 07:52:11.130 ,6,1,0.,24.0,1.,24.0,1.,24.0,0.,24.0
1979-07-03 07:52:35.130 ,6,0,0.,24.0,0.,24.0,0.,24.0,0.,24.0
1979-07-03 07:52:59.130 ,7,1,9.,24.0,0.,24.0,2.,24.0,0.,24.0
1979-07-03 07:53:23.130 ,7,0,28.,24.0,0.,24.0,0.,24.0,0.,24.0
1979-07-03 07:53:47.130 ,7,1,26.,24.0,0.,24.0,0.,24.0,0.,24.0
1979-07-03 07:54:11.130 ,7,0,20.,24.0,0.,24.0,0.,24.0,0.,24.0
1979-07-03 07:54:35.130 ,6,1,33.,24.0,0.,24.0,0.,24.0,0.,24.0
1979-07-03 07:54:59.130 ,6,0,0.,24.0,0.,24.0,0.,24.0,0.,24.0
1979-07-03 07:55:23.130 ,5,1,0.,24.0,1.,24.0,1.,24.0,0.,24.0
1979-07-03 07:55:47.130 ,5,0,2.,24.0,0.,24.0,0.,24.0,0.,24.0
1979-07-03 07:56:11.130 ,4,1,1.,24.0,0.,24.0,1.,24.0,0.,24.0
1979-07-03 07:56:35.130 ,4,0,0.,24.0,1.,24.0,0.,24.0,0.,24.0
1979-07-03 07:56:59.130 ,3,1,0.,24.0,0.,24.0,0.,24.0,0.,24.0
1979-07-03 07:57:23.130 ,3,0,1.,24.0,0.,24.0,2.,24.0,0.,24.0
1979-07-03 07:57:47.130 ,2,1,1.,24.0,1.,24.0,2.,24.0,0.,24.0
1979-07-03 07:58:11.130 ,2,0,0.,24.0,0.,24.0,0.,24.0,0.,24.0
1979-07-03 07:58:35.130 ,1,1,0.,24.0,0.,24.0,0.,24.0,0.,24.0
1979-07-03 07:58:59.130 ,1,0,0.,24.0,0.,24.0,0.,24.0,0.,24.0
1979-07-03 07:59:23.130 ,0,1,0.,24.0,0.,24.0,1.,24.0,0.,24.0
1979-07-03 07:59:47.130 ,0,0,0.,24.0,0.,24.0,0.,24.0,0.,24.0
1979-07-03 08:00:11.130 ,0,1,0.,24.0,0.,24.0,0.,24.0,0.,24.0
1979-07-03 08:00:35.130 ,0,0,0.,24.0,0.,24.0,0.,24.0,0.,24.0
1979-07-03 08:00:59.130 ,1,1,1.,24.0,0.,24.0,0.,24.0,0.,24.0
1979-07-03 08:01:23.130 ,1,0,0.,24.0,0.,24.0,0.,24.0,0.,24.0
1979-07-03 08:01:47.130 ,2,1,0.,24.0,0.,24.0,0.,24.0,0.,24.0
1979-07-03 08:02:11.130 ,2,0,0.,24.0,0.,24.0,0.,24.0,0.,24.0
1979-07-03 08:02:35.130 ,3,1,0.,24.0,1.,24.0,0.,24.0,0.,24.0
1979-07-03 08:02:59.130 ,3,0,0.,24.0,0.,24.0,0.,24.0,0.,24.0
1979-07-03 08:03:23.130 ,4,1,1.,24.0,0.,24.0,1.,24.0,0.,24.0
1979-07-03 08:03:47.130 ,4,0,0.,24.0,0.,24.0,0.,24.0,0.,24.0
1979-07-03 08:04:11.130 ,5,1,0.,24.0,0.,24.0,1.,24.0,0.,24.0
1979-07-03 08:04:35.130 ,5,0,0.,24.0,0.,24.0,0.,24.0,0.,24.0
1979-07-03 08:04:59.130 ,6,1,0.,24.0,0.,24.0,0.,24.0,0.,24.0
1979-07-03 08:05:23.130 ,6,0,0.,24.0,0.,24.0,0.,24.0,0.,24.0
1979-07-03 08:05:47.130 ,7,1,4.,24.0,0.,24.0,0.,24.0,0.,24.0
1979-07-03 08:06:11.130 ,7,0,32.,24.0,1.,24.0,0.,24.0,0.,24.0
1979-07-03 08:06:35.130 ,7,1,50.,24.0,0.,24.0,0.,24.0,0.,24.0
1979-07-03 08:06:59.130 ,7,0,29.,24.0,0.,24.0,0.,24.0,0.,24.0
1979-07-03 08:07:23.130 ,6,1,28.,24.0,0.,24.0,0.,24.0,0.,24.0
1979-07-03 08:07:47.130 ,6,0,0.,24.0,0.,24.0,1.,24.0,0.,24.0
1979-07-03 08:08:11.130 ,5,1,1.,24.0,0.,24.0,0.,24.0,0.,24.0
1979-07-03 08:08:35.130 ,5,0,0.,24.0,0.,24.0,0.,24.0,0.,24.0
1979-07-03 08:08:59.130 ,4,1,1.,24.0,0.,24.0,0.,24.0,0.,24.0
1979-07-03 08:09:23.130 ,4,0,0.,24.0,0.,24.0,0.,24.0,0.,24.0
1979-07-03 08:09:47.130 ,3,1,0.,24.0,0.,24.0,0.,24.0,0.,24.0
1979-07-03 08:10:11.130 ,3,0,0.,24.0,0.,24.0,0.,24.0,0.,24.0
1979-07-03 08:10:35.130 ,2,1,0.,24.0,0.,24.0,0.,24.0,0.,24.0
1979-07-03 08:10:59.130 ,2,0,0.,24.0,0.,24.0,0.,24.0,0.,24.0
1979-07-03 08:11:23.130 ,1,1,0.,24.0,0.,24.0,0.,24.0,0.,24.0
1979-07-03 08:11:47.130 ,1,0,0.,24.0,0.,24.0,0.,24.0,0.,24.0
1979-07-03 08:12:11.130 ,0,1,0.,24.0,0.,24.0,0.,24.0,0.,24.0
1979-07-03 08:12:35.130 ,0,0,1.,24.0,0.,24.0,0.,24.0,0.,24.0
1979-07-03 08:12:59.130 ,0,1,0.,24.0,0.,24.0,0.,24.0,0.,24.0
1979-07-03 08:13:23.130 ,0,0,1.,24.0,0.,24.0,0.,24.0,0.,24.0
1979-07-03 08:13:47.130 ,1,1,1.,24.0,0.,24.0,0.,24.0,0.,24.0
1979-07-03 08:14:11.130 ,1,0,0.,24.0,0.,24.0,1.,24.0,0.,24.0
1979-07-03 08:14:35.130 ,2,1,0.,24.0,0.,24.0,0.,24.0,0.,24.0
1979-07-03 08:14:59.130 ,2,0,0.,24.0,0.,24.0,0.,24.0,0.,24.0
1979-07-03 08:15:23.130 ,3,1,0.,24.0,0.,24.0,1.,24.0,0.,24.0
1979-07-03 08:15:47.130 ,3,0,0.,24.0,0.,24.0,0.,24.0,0.,24.0
1979-07-03 08:16:11.130 ,4,1,0.,24.0,1.,24.0,0.,24.0,0.,24.0
1979-07-03 08:16:35.130 ,4,0,0.,24.0,0.,24.0,0.,24.0,0.,24.0
1979-07-03 08:16:59.130 ,5,1,0.,24.0,0.,24.0,0.,24.0,0.,24.0
1979-07-03 08:17:23.130 ,5,0,1.,24.0,0.,24.0,0.,24.0,0.,24.0
1979-07-03 08:17:47.130 ,6,1,0.,24.0,0.,24.0,0.,24.0,0.,24.0
1979-07-03 08:18:11.130 ,6,0,1.,24.0,0.,24.0,0.,24.0,0.,24.0
1979-07-03 08:18:35.130 ,7,0,7.,24.0,0.,24.0,0.,24.0,0.,24.0
1979-07-03 08:18:59.130 ,7,0,28.,24.0,0.,24.0,0.,24.0,0.,24.0
1979-07-03 08:19:23.130 ,5,1,17.,24.0,0.,24.0,0.,24.0,0.,24.0
1979-07-03 08:19:47.130 ,1,1,0.,24.0,0.,24.0,0.,24.0,0.,24.0
1979-07-03 08:20:11.130 ,2,1,1.,24.0,0.,24.0,0.,24.0,0.,24.0
1979-07-03 08:20:35.130 ,6,1,0.,24.0,0.,24.0,0.,24.0,0.,24.0
1979-07-03 08:20:59.130 ,5,1,10.,24.0,0.,24.0,1.,24.0,0.,24.0
1979-07-03 08:21:23.130 ,1,1,0.,24.0,0.,24.0,0.,24.0,0.,24.0
1979-07-03 08:21:47.130 ,2,1,0.,24.0,0.,24.0,1.,24.0,0.,24.0
1979-07-03 08:22:11.130 ,6,1,0.,24.0,0.,24.0,0.,24.0,0.,24.0
1979-07-03 08:22:35.130 ,5,1,13.,24.0,0.,24.0,0.,24.0,0.,24.0
1979-07-03 08:22:59.130 ,1,1,0.,24.0,0.,24.0,0.,24.0,0.,24.0
1979-07-03 08:23:23.130 ,2,1,0.,24.0,0.,24.0,0.,24.0,0.,24.0
1979-07-03 08:23:47.130 ,6,1,0.,24.0,0.,24.0,0.,24.0,0.,24.0
1979-07-03 08:24:11.130 ,5,1,18.,24.0,0.,24.0,0.,24.0,0.,24.0
1979-07-03 08:24:35.130 ,1,1,0.,24.0,0.,24.0,0.,24.0,0.,24.0
1979-07-03 08:24:59.130 ,2,1,0.,24.0,0.,24.0,0.,24.0,0.,24.0
1979-07-03 08:25:23.130 ,6,1,0.,24.0,0.,24.0,0.,24.0,0.,24.0
1979-07-03 08:25:47.130 ,5,1,20.,24.0,0.,24.0,0.,24.0,0.,24.0
1979-07-03 08:26:11.130 ,1,1,0.,24.0,1.,24.0,0.,24.0,0.,24.0
1979-07-03 08:26:35.130 ,2,1,0.,24.0,0.,24.0,0.,24.0,0.,24.0
1979-07-03 08:26:59.130 ,6,1,0.,24.0,0.,24.0,0.,24.0,0.,24.0
1979-07-03 08:27:23.130 ,5,1,20.,24.0,0.,24.0,0.,24.0,0.,24.0
1979-07-03 08:27:47.130 ,1,1,0.,24.0,0.,24.0,0.,24.0,0.,24.0
1979-07-03 08:28:11.130 ,2,1,0.,24.0,0.,24.0,1.,24.0,0.,24.0
1979-07-03 08:28:35.130 ,6,1,1.,24.0,0.,24.0,0.,24.0,0.,24.0
1979-07-03 08:28:59.130 ,5,1,14.,24.0,0.,24.0,0.,24.0,0.,24.0
1979-07-03 08:29:23.130 ,1,1,0.,24.0,0.,24.0,0.,24.0,0.,24.0
1979-07-03 08:29:47.130 ,0,0,0.,24.0,0.,24.0,0.,24.0,0.,24.0
1979-07-03 08:30:11.130 ,0,0,0.,24.0,1.,24.0,0.,24.0,0.,24.0
1979-07-03 08:30:35.130 ,5,1,14.,24.0,0.,24.0,0.,24.0,0.,24.0
1979-07-03 08:30:59.130 ,5,0,0.,24.0,0.,24.0,0.,24.0,0.,24.0
1979-07-03 08:31:23.130 ,4,1,0.,24.0,0.,24.0,0.,24.0,0.,24.0
1979-07-03 08:31:47.130 ,4,0,0.,24.0,1.,24.0,0.,24.0,0.,24.0
1979-07-03 08:32:11.130 ,3,1,0.,24.0,0.,24.0,0.,24.0,0.,24.0
1979-07-03 08:32:35.130 ,3,0,0.,24.0,0.,24.0,0.,24.0,0.,24.0
1979-07-03 08:32:59.130 ,2,1,0.,24.0,0.,24.0,0.,24.0,0.,24.0
1979-07-03 08:33:23.130 ,2,0,0.,24.0,0.,24.0,0.,24.0,0.,24.0